Theta_e
308 302 297 298 306 308 311 312 305 302 307 306 305 314 317 324 331 329 328 336 344 354 353 353 352 351 350 349 348 345 344 343
304 300 304 305 308 308 308 310 305 305 304 308 313 315 319 324 330 329 331 337 345 354 353 353 353 352 352 350 349 347 345 346
300 301 305 307 309 307 307 306 304 305 304 305 312 318 321 330 329 328 328 333 342 353 354 354 353 353 353 351 351 350 347 346
296 300 304 307 309 307 306 306 304 304 305 306 312 316 325 330 327 327 329 334 339 351 353 354 354 353 352 351 351 350 350 348
299 302 303 306 308 305 304 305 305 306 303 306 310 315 325 329 327 328 330 333 337 344 350 353 354 352 351 351 352 350 348 346
302 301 301 307 305 305 305 307 310 311 304 304 309 314 318 321 323 326 329 332 334 339 344 341 344 353 352 350 348 346 343 341
300 301 303 304 303 308 310 308 307 311 309 311 314 312 314 314 315 317 322 325 327 330 333 333 333 337 345 343 342 341 340 339
306 306 305 305 306 307 308 308 309 308 311 314 312 311 312 312 315 313 316 317 322 325 326 326 327 326 327 330 331 330 331 329
307 309 308 307 309 310 307 305 309 307 312 310 310 309 310 312 315 316 317 316 317 321 322 321 322 321 322 324 325 326 327 327
308 310 307 308 310 310 311 310 315 315 312 310 309 309 310 311 312 308 309 313 315 319 320 320 321 321 320 321 320 320 323 325
310 309 309 312 309 310 310 315 316 314 310 311 310 311 312 312 311 307 308 312 316 319 319 320 320 321 319 318 321 321 322 323
306 308 310 308 308 307 310 315 312 311 309 310 310 311 311 309 309 308 310 314 318 319 319 320 320 319 319 319 320 322 322 322
300 302 302 307 301 303 310 311 309 309 308 309 311 310 310 311 311 309 312 316 319 319 320 320 320 319 319 320 322 321 322 323
297 302 302 303 294 303 308 306 307 307 308 307 309 311 312 312 309 312 315 317 318 322 320 319 318 319 320 322 322 322 323 324
292 300 299 299 296 303 306 305 305 307 307 307 308 308 311 310 310 314 317 317 317 319 318 319 319 319 321 322 322 323 324 324
291 297 296 295 295 301 304 304 304 305 306 307 306 307 308 310 312 316 317 317 317 318 319 319 319 321 321 321 322 323 324 324
296 299 296 295 296 300 303 302 302 303 304 305 305 307 308 310 313 316 316 317 317 318 318 319 320 319 319 319 320 321 322 323
296 299 296 296 296 300 302 302 303 304 305 305 304 309 310 309 313 315 316 316 317 318 318 320 319 320 321 320 320 322 322 323
293 296 297 295 293 297 302 302 304 306 307 306 306 307 307 310 311 314 315 315 317 318 320 321 320 320 318 318 318 318 319 321
296 292 286 295 285 294 298 300 302 303 302 304 306 309 308 309 310 313 314 316 318 319 321 322 321 319 316 316 315 317 318 320
Wind_Speed
4 4 5 5 5 5 8 8 6 2 3 6 5 3 5 5 12 9 12 12 15 23 21 20 19 18 17 16 16 16 15 15
2 6 7 6 7 2 7 6 4 5 5 4 5 6 7 8 11 11 10 11 16 21 20 20 18 18 16 16 16 15 16 16
2 6 6 7 8 3 6 5 4 4 5 5 3 3 7 10 11 12 8 8 12 20 20 19 19 17 16 16 16 15 16 16
4 5 5 6 8 2 3 4 2 1 2 6 2 6 8 9 10 8 12 9 9 18 19 18 17 16 16 15 15 14 14 14
3 4 6 6 4 4 1 3 5 3 5 6 6 7 7 7 7 7 7 8 7 9 14 18 16 16 15 14 14 13 13 12
5 3 8 4 1 2 2 6 1 2 5 8 5 8 6 5 5 5 6 6 7 6 7 7 7 15 14 14 14 12 11 12
7 7 8 3 2 0 1 4 3 6 5 5 2 8 7 4 2 3 4 6 7 7 6 6 6 6 11 15 13 13 12 13
9 7 7 5 2 3 4 8 11 6 6 2 6 8 11 9 11 8 8 7 8 7 7 6 4 5 4 4 3 4 5 6
8 9 3 6 9 3 3 9 8 8 15 3 7 9 11 12 13 18 12 6 8 7 7 8 5 4 2 2 3 3 5 5
12 5 3 8 5 13 10 19 15 14 9 5 10 15 15 15 16 9 9 10 8 8 7 7 4 4 4 3 3 3 4 6
8 10 8 13 13 15 16 22 14 10 8 11 13 19 16 17 9 6 9 8 9 8 7 6 6 3 3 4 4 4 4 4
4 10 13 16 20 4 13 17 13 11 12 11 14 20 15 8 11 11 8 9 9 9 7 7 5 5 4 4 5 4 4 5
10 11 8 14 20 10 18 13 12 16 13 11 15 9 17 21 18 9 7 9 11 9 7 7 6 5 4 4 4 4 4 5
5 6 7 9 17 10 19 10 16 15 12 10 13 17 21 12 8 10 12 13 9 8 8 7 5 4 4 4 4 4 4 3
8 9 5 9 16 18 7 7 13 16 12 10 14 11 16 9 9 11 12 13 10 8 8 7 5 4 5 5 3 4 3 3
13 1 4 12 16 19 17 10 16 13 14 12 12 20 5 10 11 14 13 12 10 6 7 6 4 3 3 1 2 3 3 3
14 2 3 8 9 18 12 7 11 12 11 13 12 4 5 8 13 15 12 12 11 9 7 4 2 3 1 2 2 3 2 3
15 6 4 11 13 17 15 13 11 13 14 12 4 3 3 9 10 13 15 12 9 8 7 5 2 2 2 1 3 2 2 3
17 5 5 6 10 16 13 8 7 10 11 9 9 8 7 8 10 12 13 12 10 8 8 5 4 2 1 1 1 2 2 2
14 4 6 4 7 13 12 12 7 10 8 8 0 5 8 10 10 12 10 7 8 8 7 5 5 2 2 2 1 1 1 2
Wind_Direction
114 150 199 226 222 250 292 254 207 215 279 155 222 214 197 222 158 146 163 167 177 186 188 191 192 194 196 200 206 213 221 229
109 227 252 229 265 183 316 332 214 162 257 265 217 162 191 150 153 154 164 173 181 185 188 191 194 197 200 204 212 218 225 235
239 247 257 243 255 265 281 281 237 155 239 255 249 146 152 150 157 164 161 167 176 183 188 193 197 202 204 210 216 220 228 238
237 239 247 262 250 209 213 274 305 207 126 257 306 165 187 158 166 162 165 164 172 187 189 194 199 204 206 214 219 225 234 241
257 245 272 240 191 204 355 299 286 176 173 256 264 218 169 165 142 156 149 157 172 188 193 196 200 205 208 217 221 222 229 236
235 217 271 237 234 104 52 308 50 150 244 259 252 149 116 87 140 155 157 167 177 170 184 189 192 204 207 215 215 219 224 230
237 173 244 230 349 27 186 235 250 217 237 251 120 113 112 129 191 178 182 183 171 173 179 177 188 211 212 220 222 223 223 225
200 190 234 182 174 344 340 318 286 257 283 322 150 171 171 181 203 204 202 195 182 169 175 171 183 198 214 231 230 219 209 213
275 238 347 293 287 206 267 280 248 282 293 217 182 206 190 204 204 208 200 186 179 173 172 167 182 192 198 221 230 228 223 212
249 253 255 256 323 298 259 258 275 278 255 192 203 210 201 209 212 192 189 187 166 174 167 174 173 183 187 205 228 231 224 213
264 288 255 273 261 254 285 283 281 269 259 225 208 216 218 214 219 180 198 165 170 159 167 174 182 173 198 221 228 226 213 206
261 273 272 277 269 258 257 276 288 289 257 237 212 218 220 206 213 200 166 162 153 164 175 167 177 183 212 218 234 228 220 223
229 235 247 270 277 248 266 271 262 269 260 241 226 216 223 222 214 162 158 151 162 163 166 174 181 209 221 224 219 226 226 226
190 222 241 186 278 263 266 256 261 261 261 244 242 217 228 228 176 147 142 159 154 159 166 174 196 214 228 233 225 232 228 224
298 209 211 184 279 266 269 251 271 271 270 256 258 238 231 192 150 148 150 149 152 158 170 176 203 215 232 236 228 232 225 224
246 321 171 270 266 272 271 249 256 268 267 265 251 246 222 152 153 147 150 149 144 151 161 172 188 214 234 262 252 242 241 248
253 197 230 250 271 274 278 252 260 260 265 255 240 235 184 155 153 147 146 136 141 149 172 157 167 202 213 236 254 258 244 261
276 229 225 271 272 283 285 265 251 265 274 264 221 204 135 129 143 155 145 146 144 158 170 178 166 195 158 207 250 254 255 276
245 359 257 300 289 286 284 262 280 260 247 265 227 183 139 136 138 142 144 150 157 164 173 166 173 110 56 321 310 341 354 310
251 160 244 112 288 292 302 287 246 279 293 285 212 121 139 134 139 144 154 140 147 158 169 164 147 127 152 191 245 245 263 279